Shreveport, LA

5:43 PM CDT on June 23, 2017 (GMT -0500)
Shreveport Regional

Weather History for KSHV - January, 2012

Change the Weather History Date:

Saturday, January 21, 2012

  Actual Average Record
Temperature  
Mean Temperature 63 °F 47 °F  
Max Temperature 71 °F 58 °F 81 °F (1911)
Min Temperature 54 °F 36 °F 10 °F (1985)
Degree Days  
Heating Degree Days 2 18  
Month to date heating degree days 247 395  
Since 1 July heating degree days 1056 1297  
Cooling Degree Days 0 0  
Month to date cooling degree days 4 0  
Year to date cooling degree days 4 0  
Growing Degree Days 12 (Base 50)    
Moisture  
Dew Point 52 °F    
Average Humidity 76    
Maximum Humidity 87    
Minimum Humidity 64    
Precipitation  
Precipitation 0.00 in 0.14 in 2.11 in (1906)
Month to date precipitation 1.41 2.73  
Year to date precipitation 1.41 2.73  
Snow  
Snow 0.00 in - - ()
Month to date snowfall 0.0  
Since 1 July snowfall T  
Snow Depth 0.00 in    
Sea Level Pressure  
Sea Level Pressure 29.93 in    
Wind  
Wind Speed 8 mph (NE)    
Max Wind Speed 16 mph    
Max Gust Speed 20 mph    
Visibility 10 miles    
Events      
T = Trace of Precipitation, MM = Missing Value Source: NWS Daily Summary

Daily Weather History Graph

Daily Weather History Graph

Search for Another Location

Airport or City:

Trip Planner

Search our weather history database for the weather conditions in past years. The results will help you decide how hot, cold, wet, or windy it might be!

Date:

Astronomy

Jan. 21, 2012 Rise Set
Actual Time 7:15 AM CST 5:37 PM CST
Civil Twilight 6:49 AM CST 6:04 PM CST
Nautical Twilight 6:19 AM CST 6:34 PM CST
Astronomical Twilight 5:49 AM CST 7:03 PM CST
Moon 5:44 AM CST (1/21) 4:16 PM CST (1/21)
Length of Visible Light 11h 14m
Length of Day
10h 22m
Waning Crescent, 3% of the Moon is Illuminated
Jan 21
Waning Crescent
Jan 23
New
Jan 30
First Quarter
Feb 7
Full
Feb 14
Last Quarter

Hourly Weather History & Observations

Time (CST) Temp. Dew Point Humidity Pressure Visibility Wind Dir Wind Speed Gust Speed Precip Events Conditions
12:56 AM 71.1 °F 64.0 °F 78% 29.85 in 10.0 mi WSW 8.1 mph - N/A   Overcast
1:56 AM 69.8 °F 64.4 °F 83% 29.86 in 10.0 mi SW 5.8 mph - N/A   Partly Cloudy
2:56 AM 69.1 °F 64.0 °F 84% 29.84 in 10.0 mi SSW 8.1 mph - N/A   Mostly Cloudy
3:56 AM 69.1 °F 64.9 °F 87% 29.84 in 10.0 mi SSW 4.6 mph - N/A   Overcast
4:56 AM 66.0 °F 63.0 °F 90% 29.86 in 10.0 mi NNW 6.9 mph - N/A   Mostly Cloudy
5:56 AM 64.4 °F 57.2 °F 77% 29.89 in 10.0 mi NNW 9.2 mph - N/A   Mostly Cloudy
6:09 AM 64.4 °F 57.2 °F 77% 29.90 in 10.0 mi NW 8.1 mph - N/A   Mostly Cloudy
6:56 AM 60.1 °F 51.1 °F 72% 29.92 in 10.0 mi NW 15.0 mph - N/A   Overcast
7:56 AM 57.9 °F 48.9 °F 72% 29.95 in 10.0 mi NNW 10.4 mph - N/A   Overcast
8:56 AM 57.0 °F 48.9 °F 74% 29.98 in 10.0 mi NNW 10.4 mph - N/A   Overcast
9:56 AM 57.9 °F 48.9 °F 72% 30.00 in 10.0 mi NNW 6.9 mph - N/A   Overcast
10:56 AM 59.0 °F 51.1 °F 75% 30.00 in 10.0 mi NNE 10.4 mph - N/A   Overcast
11:11 AM 59.0 °F 51.8 °F 77% 30.00 in 10.0 mi North 9.2 mph - N/A   Overcast
11:56 AM 59.0 °F 51.1 °F 75% 29.99 in 10.0 mi NE 8.1 mph - N/A   Overcast
12:56 PM 59.0 °F 51.1 °F 75% 29.97 in 10.0 mi NE 5.8 mph - N/A   Overcast
1:56 PM 60.1 °F 50.0 °F 69% 29.96 in 10.0 mi NE 6.9 mph - N/A   Overcast
2:56 PM 60.8 °F 50.0 °F 68% 29.96 in 7.0 mi NE 6.9 mph - N/A   Overcast
3:56 PM 60.1 °F 48.9 °F 67% 29.95 in 6.0 mi East 8.1 mph - N/A   Haze
4:56 PM 59.0 °F 48.9 °F 69% 29.95 in 6.0 mi ENE 5.8 mph - N/A   Haze
5:56 PM 57.2 °F 48.2 °F 72% 29.95 in 7.0 mi ENE 6.9 mph - N/A   Overcast
6:56 PM 57.0 °F 46.0 °F 67% 29.94 in 10.0 mi East 8.1 mph - N/A   Overcast
7:56 PM 57.0 °F 46.0 °F 67% 29.95 in 10.0 mi East 6.9 mph - N/A   Overcast
8:56 PM 55.9 °F 46.9 °F 72% 29.94 in 10.0 mi ESE 12.7 mph - N/A   Overcast
9:56 PM 55.0 °F 46.0 °F 72% 29.95 in 10.0 mi ESE 6.9 mph - N/A   Overcast
10:56 PM 54.0 °F 46.0 °F 75% 29.94 in 10.0 mi ESE 8.1 mph - N/A   Overcast
11:34 PM 53.6 °F 46.4 °F 77% 29.93 in 10.0 mi ESE 8.1 mph - N/A   Overcast
11:56 PM 54.0 °F 46.0 °F 75% 29.92 in 10.0 mi East 8.1 mph - N/A   Overcast